Location: Unspecified
(0.0000°N, 0.0000°E)
Time: 18:57:36
(UTC+00:00)

Vanguard 2 Rocket - Pass Details

Date: 22 January 2020
Orbit: 554 x 3327 km, 32.9° (Epoch: 20 February)

Event Time Altitude Azimuth Distance (km) Brightness Sun altitude
Rises 01:34:06 0° 235° (SW) 3,638 - -61.6°
Reaches altitude 10° 01:37:09 10° 235° (SW) 2,378 - -61.1°
Maximum altitude 01:42:19 89° 155° (SSE) 619 - -60.2°
Drops below altitude 10° 01:46:15 10° 55° (NE) 1,824 - -59.5°
Sets 01:48:19 0° 55° (NE) 2,710 - -59.1°
